FW6720 Weather Reports


time (UTC)temp
C
wind
direction
speed
KPH
gust
KPH
rain 1hr
cm
rain 24hr
cm
rain mn
cm
humidity
%
barometer
mb
20260506233116 18 14 0.0 1.6 0.00 0.00 0.00 64 1022.3
20260506232612 18 16 0.0 0.0 0.00 0.00 0.00 64 1022.4
20260506232107 18 13 0.0 1.6 0.00 0.00 0.00 64 1022.2
20260506231605 18 11 0.0 0.0 0.00 0.00 0.00 64 1022.3
20260506231103 18 14 0.0 0.0 0.00 0.00 0.00 66 1022.5
20260506230559 18 15 0.0 0.0 0.00 0.00 0.00 64 1022.3
20260506230057 17 10 0.0 0.0 0.00 0.00 0.00 66 1022.6
20260506225553 17 11 0.0 0.0 0.00 0.00 0.00 65 1022.3
20260506225050 18 11 0.0 0.0 0.00 0.00 0.00 66 1022.4
20260506224547 18 11 0.0 0.0 0.00 0.00 0.00 64 1022.3
20260506224043 19 9 0.0 0.0 0.00 0.00 0.00 63 1022.1
20260506223539 19 12 0.0 0.0 0.00 0.00 0.00 63 1022.6
20260506223036 19 14 0.0 0.0 0.00 0.00 0.00 64 1022.4
20260506222533 19 10 0.0 0.0 0.00 0.00 0.00 61 1022.3
20260506222029 18 9 0.0 0.0 0.00 0.00 0.00 63 1022.6
20260506221527 19 10 0.0 0.0 0.00 0.00 0.00 62 1022.6
20260506221025 20 13 0.0 0.0 0.00 0.00 0.00 62 1022.5
20260506220520 20 11 0.0 0.0 0.00 0.00 0.00 62 1022.3
20260506220016 20 11 0.0 0.0 0.00 0.00 0.00 60 1022.4
20260506215513 20 14 0.0 0.0 0.00 0.00 0.00 61 1022.3
20260506215009 19 13 0.0 0.0 0.00 0.00 0.00 62 1022.2
20260506214506 19 165 0.0 0.0 0.00 0.00 0.00 63 1022.4
20260506214003 19 165 0.0 0.0 0.00 0.00 0.00 63 1022.2
20260506213501 19 23 0.0 0.0 0.00 0.00 0.00 65 1022.4
20260506212958 19 19 0.0 0.0 0.00 0.00 0.00 62 1022.3
20260506212454 20 20 0.0 0.0 0.00 0.00 0.00 65 1022.5
20260506211949 20 120 0.0 0.0 0.00 0.00 0.00 66 1022.5
20260506211445 19 121 0.0 0.0 0.00 0.00 0.00 65 1022.2
20260506210942 19 121 0.0 0.0 0.00 0.00 0.00 66 1022.2
20260506210439 19 65 0.0 0.0 0.00 0.00 0.00 68 1022.3
20260506205936 21 80 0.0 1.6 0.00 0.00 0.00 61 1022.3
20260506205432 20 54 0.0 0.0 0.00 0.00 0.00 63 1022.3
20260506204928 19 7 0.0 0.0 0.00 0.00 0.00 67 1022.3
20260506204426 20 5 0.0 0.0 0.00 0.00 0.00 64 1022.3
20260506203924 19 18 0.0 0.0 0.00 0.00 0.00 64 1022.3
20260506203420 20 29 0.0 1.6 0.00 0.00 0.00 63 1022.3
20260506202917 20 146 0.0 0.0 0.00 0.00 0.00 62 1022.3
20260506202415 21 14 0.0 0.0 0.00 0.00 0.00 63 1022.4
20260506201911 18 13 0.0 0.0 0.00 0.00 0.00 67 1022.4
20260506201409 18 10 0.0 0.0 0.00 0.00 0.00 67 1022.4
20260506200905 18 8 0.0 0.0 0.00 0.00 0.00 67 1022.5
20260506200401 18 7 0.0 0.0 0.00 0.00 0.00 69 1022.7
20260506195858 18 9 0.0 0.0 0.00 0.00 0.00 68 1022.3
20260506195355 20 46 0.0 0.0 0.00 0.00 0.00 67 1022.5
20260506194851 18 51 0.0 0.0 0.00 0.00 0.00 66 1022.4
20260506194348 18 73 0.0 1.6 0.00 0.00 0.00 67 1022.1
20260506193846 18 17 0.0 0.0 0.00 0.00 0.00 70 1022.3
20260506193342 17 9 0.0 0.0 0.00 0.00 0.00 71 1022.4
20260506192839 17 8 0.0 0.0 0.00 0.00 0.00 71 1022.4
20260506192336 18 8 0.0 0.0 0.00 0.00 0.00 68 1022.6
20260506191833 18 9 0.0 0.0 0.00 0.00 0.00 67 1022.6
20260506191329 18 8 0.0 0.0 0.00 0.00 0.00 66 1022.4
20260506190826 18 11 0.0 0.0 0.00 0.00 0.00 67 1022.5
20260506190322 18 9 0.0 0.0 0.00 0.00 0.00 68 1022.5
20260506185819 18 9 0.0 0.0 0.00 0.00 0.00 67 1022.6
20260506185316 18 111 0.0 0.0 0.00 0.00 0.00 66 1022.5
20260506184813 18 131 0.0 0.0 0.00 0.00 0.00 67 1022.5
20260506184311 19 133 1.6 1.6 0.00 0.00 0.00 67 1022.4
20260506183808 18 87 1.6 3.2 0.00 0.00 0.00 65 1022.5
20260506183303 18 305 1.6 1.6 0.00 0.00 0.00 66 1022.6
20260506182800 18 126 0.0 0.0 0.00 0.00 0.00 66 1022.7
20260506182257 18 120 0.0 0.0 0.00 0.00 0.00 67 1022.3
20260506181755 18 269 1.6 1.6 0.00 0.00 0.00 67 1022.5
20260506181253 17 53 0.0 0.0 0.00 0.00 0.00 70 1022.4
20260506180749 17 65 0.0 1.6 0.00 0.00 0.00 69 1022.7
20260506180245 17 25 0.0 0.0 0.00 0.00 0.00 71 1022.5
20260506175742 16 24 0.0 0.0 0.00 0.00 0.00 72 1022.4
20260506175239 17 19 0.0 0.0 0.00 0.00 0.00 71 1022.2
20260506174737 17 35 0.0 0.0 0.00 0.00 0.00 68 1022.4
20260506174233 17 22 0.0 0.0 0.00 0.00 0.00 69 1022.2
20260506173732 17 22 0.0 0.0 0.00 0.00 0.00 68 1022.0
20260506173228 17 52 0.0 0.0 0.00 0.00 0.00 68 1022.2
20260506172724 17 52 0.0 0.0 0.00 0.00 0.00 69 1022.2
20260506172221 16 15 0.0 0.0 0.00 0.00 0.00 72 1022.3
20260506171719 16 14 0.0 0.0 0.00 0.00 0.00 72 1022.4
20260506171216 16 107 0.0 0.0 0.00 0.00 0.00 70 1022.2
20260506170713 16 59 0.0 0.0 0.00 0.00 0.00 71 1022.6
20260506170210 16 61 0.0 0.0 0.00 0.00 0.00 72 1022.3
20260506165708 15 19 0.0 0.0 0.00 0.00 0.00 74 1022.6
20260506165205 15 16 0.0 1.6 0.00 0.00 0.00 75 1022.6
20260506164702 15 16 1.6 1.6 0.00 0.00 0.00 73 1022.5
20260506164159 14 21 0.0 0.0 0.00 0.00 0.00 76 1022.6
20260506163655 14 17 0.0 0.0 0.00 0.00 0.00 76 1022.6
20260506163151 15 16 0.0 0.0 0.00 0.00 0.00 75 1022.4
20260506162647 15 19 0.0 0.0 0.00 0.00 0.00 74 1022.5
20260506162144 13 17 0.0 0.0 0.00 0.00 0.00 76 1022.1
20260506161641 13 16 0.0 0.0 0.00 0.00 0.00 76 1022.5
20260506161138 13 16 0.0 0.0 0.00 0.00 0.00 77 1022.2
20260506160636 13 16 0.0 0.0 0.00 0.00 0.00 76 1022.4
20260506160132 13 15 0.0 0.0 0.00 0.00 0.00 75 1022.5
20260506155631 13 15 0.0 0.0 0.00 0.00 0.00 78 1022.5
20260506155128 12 15 0.0 0.0 0.00 0.00 0.00 79 1022.0
20260506153230 12 14 0.0 0.0 0.00 0.00 0.00 80 1022.3
20260506152727 12 14 0.0 0.0 0.00 0.00 0.00 80 1022.3
20260506152224 12 14 0.0 0.0 0.00 0.00 0.00 78 1021.8
20260506151724 12 15 0.0 0.0 0.00 0.00 0.00 79 1021.9
20260506151219 12 14 0.0 0.0 0.00 0.00 0.00 78 1021.7
20260506150716 12 15 0.0 0.0 0.00 0.00 0.00 79 1021.7
20260506150213 12 14 0.0 0.0 0.00 0.00 0.00 80 1021.7
20260506145710 12 15 0.0 0.0 0.00 0.00 0.00 80 1022.0
20260506145207 12 14 0.0 0.0 0.00 0.00 0.00 79 1022.1
20260506144704 12 15 0.0 0.0 0.00 0.00 0.00 82 1022.2
20260506144201 12 15 0.0 0.0 0.00 0.00 0.00 80 1022.4
20260506143659 12 15 0.0 0.0 0.00 0.00 0.00 81 1022.3
20260506143156 12 15 0.0 0.0 0.00 0.00 0.00 83 1022.5
20260506142655 12 15 0.0 0.0 0.00 0.00 0.00 84 1022.5
20260506142152 11 15 0.0 0.0 0.00 0.00 0.00 84 1022.4
20260506141650 11 15 0.0 0.0 0.00 0.00 0.00 86 1022.5
20260506141148 11 15 0.0 0.0 0.00 0.00 0.00 86 1022.2
20260506140645 11 15 0.0 0.0 0.00 0.00 0.00 87 1022.4
20260506140142 11 15 0.0 0.0 0.00 0.00 0.00 87 1022.3
20260506135639 11 15 0.0 0.0 0.00 0.00 0.00 87 1022.3
20260506135135 11 15 0.0 0.0 0.00 0.00 0.00 87 1022.3
20260506134632 11 15 0.0 0.0 0.00 0.00 0.00 87 1022.3
20260506134127 11 15 0.0 0.0 0.00 0.00 0.00 88 1021.7
20260506133625 11 15 0.0 0.0 0.00 0.00 0.00 88 1021.9
20260506133122 11 15 0.0 0.0 0.00 0.00 0.00 87 1021.7
20260506132619 11 15 0.0 0.0 0.00 0.00 0.00 87 1021.6
20260506132116 11 15 0.0 0.0 0.00 0.00 0.00 87 1021.7
20260506131613 11 15 0.0 0.0 0.00 0.00 0.00 88 1021.8
20260506131110 11 15 0.0 0.0 0.00 0.00 0.00 88 1021.7
20260506130607 11 15 0.0 0.0 0.00 0.00 0.00 87 1021.6
20260506130104 11 15 0.0 0.0 0.00 0.00 0.00 88 1021.6
20260506125603 11 16 0.0 0.0 0.00 0.00 0.00 88 1021.4
20260506125100 11 16 0.0 0.0 0.00 0.00 0.00 88 1021.4
20260506124557 11 16 0.0 0.0 0.00 0.00 0.00 87 1021.4
20260506124055 11 16 0.0 0.0 0.00 0.00 0.00 87 1021.2
20260506123552 11 16 0.0 0.0 0.00 0.00 0.00 87 1021.4
20260506123051 11 16 0.0 0.0 0.00 0.00 0.00 87 1021.1
20260506122547 11 16 0.0 0.0 0.00 0.00 0.00 87 1021.3
20260506122045 11 16 0.0 0.0 0.00 0.00 0.00 87 1021.3
20260506121542 11 16 0.0 0.0 0.00 0.00 0.00 87 1021.3
20260506121038 11 16 0.0 0.0 0.00 0.00 0.00 86 1021.2
20260506120537 11 16 0.0 0.0 0.00 0.00 0.00 86 1020.9
20260506120034 11 16 0.0 0.0 0.00 0.00 0.00 86 1021.2
20260506115532 11 16 0.0 0.0 0.00 0.00 0.00 85 1021.1
20260506115030 11 16 0.0 0.0 0.00 0.00 0.00 85 1021.2
20260506114527 12 16 0.0 0.0 0.00 0.00 0.00 85 1021.1
20260506114025 12 16 0.0 0.0 0.00 0.00 0.00 84 1021.1
20260506113523 12 16 0.0 0.0 0.00 0.00 0.00 85 1021.1
20260506113020 11 16 0.0 0.0 0.00 0.00 0.00 84 1021.0
20260506112516 11 16 0.0 0.0 0.00 0.00 0.00 86 1020.9
20260506112014 12 16 0.0 0.0 0.00 0.00 0.00 86 1021.0
20260506111512 12 16 0.0 0.0 0.00 0.00 0.00 86 1021.0
20260506111008 12 16 0.0 0.0 0.00 0.00 0.00 86 1020.9
20260506110506 12 16 0.0 0.0 0.00 0.00 0.00 86 1020.8
20260506110003 12 16 0.0 0.0 0.00 0.00 0.00 85 1020.9
20260506105459 12 16 0.0 0.0 0.00 0.00 0.00 85 1020.9
20260506104957 12 16 0.0 0.0 0.00 0.00 0.00 85 1020.8
20260506104455 12 16 0.0 0.0 0.00 0.00 0.00 86 1020.6
20260506103953 12 16 0.0 0.0 0.00 0.00 0.00 85 1020.7
20260506103449 12 16 0.0 0.0 0.00 0.00 0.00 85 1020.6
20260506102946 12 16 0.0 0.0 0.00 0.00 0.00 85 1020.8
20260506102444 12 16 0.0 0.0 0.00 0.00 0.00 85 1020.6
20260506101941 12 16 0.0 0.0 0.00 0.00 0.00 85 1020.4
20260506101438 12 16 0.0 0.0 0.00 0.00 0.00 85 1020.5
20260506100935 12 16 0.0 0.0 0.00 0.00 0.00 85 1020.6
20260506100433 12 16 0.0 0.0 0.00 0.00 0.00 85 1020.4
20260506095931 12 16 0.0 0.0 0.00 0.00 0.00 86 1020.4
20260506095429 12 16 0.0 0.0 0.00 0.00 0.00 86 1020.4
20260506094925 12 16 0.0 0.0 0.00 0.00 0.00 85 1020.0
20260506094424 12 16 0.0 0.0 0.00 0.00 0.00 86 1020.1
20260506093921 12 16 0.0 0.0 0.00 0.00 0.00 85 1020.1
20260506093419 12 16 0.0 0.0 0.00 0.00 0.00 85 1020.2
20260506092917 12 16 0.0 0.0 0.00 0.00 0.00 85 1019.9
20260506092414 12 16 0.0 0.0 0.00 0.00 0.00 85 1020.1
20260506091911 12 16 0.0 0.0 0.00 0.00 0.00 85 1020.2
20260506091409 12 16 0.0 0.0 0.00 0.00 0.00 85 1020.0
20260506090905 12 16 0.0 0.0 0.00 0.00 0.00 85 1020.1
20260506090403 12 16 0.0 0.0 0.00 0.00 0.00 85 1020.0
20260506085900 12 16 0.0 0.0 0.00 0.00 0.00 85 1019.8
20260506085356 12 16 0.0 0.0 0.00 0.00 0.00 85 1020.0
20260506084853 12 16 0.0 0.0 0.00 0.00 0.00 84 1019.9
20260506084349 12 16 0.0 0.0 0.00 0.00 0.00 84 1020.0
20260506083846 12 16 0.0 0.0 0.00 0.00 0.00 84 1019.9
20260506083344 12 16 0.0 0.0 0.00 0.00 0.00 84 1020.0
20260506082841 12 16 0.0 0.0 0.00 0.00 0.00 84 1020.0
20260506082337 12 16 0.0 0.0 0.00 0.00 0.00 85 1020.0
20260506081833 12 16 0.0 0.0 0.00 0.00 0.00 85 1019.9
20260506081332 12 16 0.0 0.0 0.00 0.00 0.00 84 1019.9
20260506080829 12 16 0.0 0.0 0.00 0.00 0.00 85 1019.8
20260506080325 12 16 0.0 0.0 0.00 0.00 0.00 85 1020.0
20260506073310 12 16 0.0 0.0 0.00 0.00 0.00 86 1019.5
20260506072806 12 16 0.0 0.0 0.00 0.00 0.00 86 1019.6
20260506072305 12 16 0.0 0.0 0.00 0.00 0.00 86 1019.6
20260506071802 12 16 0.0 0.0 0.00 0.00 0.00 86 1019.4
20260506071300 12 16 0.0 0.0 0.00 0.00 0.00 86 1019.3
20260506070756 12 16 0.0 0.0 0.00 0.00 0.00 86 1019.4
20260506070253 12 16 0.0 0.0 0.00 0.00 0.00 86 1019.5
20260506062230 13 16 0.0 0.0 0.00 0.00 0.00 83 1019.4
20260506061726 13 16 0.0 0.0 0.00 0.00 0.00 83 1019.3
20260506061224 13 16 0.0 0.0 0.00 0.00 0.00 83 1019.1
20260506060722 13 16 0.0 0.0 0.00 0.00 0.00 83 1019.3
20260506060219 13 16 0.0 0.0 0.00 0.00 0.00 83 1019.3
20260506051151 13 16 0.0 0.0 0.00 0.00 0.00 86 1019.0
20260506050649 13 17 0.0 0.0 0.00 0.00 0.00 86 1019.0
20260506050146 13 16 0.0 0.0 0.00 0.00 0.00 86 1018.9
20260506044637 13 16 0.0 0.0 0.00 0.00 0.00 86 1018.8
20260506044134 13 16 0.0 0.0 0.00 0.00 0.00 86 1018.8
20260506043631 13 16 0.0 0.0 0.00 0.00 0.00 86 1018.7
20260506043129 13 16 0.0 0.0 0.00 0.00 0.00 86 1018.8
20260506042627 13 16 0.0 0.0 0.00 0.00 0.00 86 1018.6
20260506042125 13 16 0.0 0.0 0.00 0.00 0.00 86 1018.5
20260506041624 13 16 0.0 0.0 0.00 0.00 0.00 86 1018.4
20260506041120 13 16 0.0 0.0 0.00 0.00 0.00 86 1018.5
20260506040618 13 16 0.0 0.0 0.00 0.00 0.00 86 1018.4
20260506040114 13 16 0.0 0.0 0.00 0.00 0.00 86 1018.5
20260506035611 13 16 0.0 0.0 0.00 0.00 0.00 86 1018.2
20260506035108 13 16 0.0 0.0 0.00 0.00 0.00 86 1018.1
20260506034605 13 16 0.0 0.0 0.00 0.00 0.00 86 1018.1
20260506034102 13 16 0.0 0.0 0.00 0.00 0.00 85 1018.1
20260506033559 13 16 0.0 0.0 0.00 0.00 0.00 85 1017.9
20260506033056 13 16 0.0 0.0 0.00 0.00 0.00 84 1017.7
20260506032553 14 16 0.0 0.0 0.00 0.00 0.00 84 1018.0
20260506032050 14 16 0.0 0.0 0.00 0.00 0.00 83 1017.6
20260506031548 14 16 0.0 0.0 0.00 0.00 0.00 83 1017.5
20260506031044 15 15 0.0 0.0 0.00 0.00 0.00 82 1017.5
20260506030543 15 15 0.0 0.0 0.00 0.00 0.00 82 1017.6
20260506030039 15 15 0.0 0.0 0.00 0.00 0.00 81 1017.4
20260506025536 15 15 0.0 0.0 0.00 0.00 0.00 80 1017.3
20260506025032 16 15 0.0 0.0 0.00 0.00 0.00 78 1017.3
20260506024530 16 15 0.0 0.0 0.00 0.00 0.00 76 1017.5
20260506024026 16 15 0.0 0.0 0.00 0.00 0.00 75 1017.2
20260506023522 16 15 0.0 0.0 0.00 0.00 0.00 76 1017.2
20260506023020 16 15 0.0 0.0 0.00 0.00 0.00 76 1017.1
20260506022517 16 15 0.0 0.0 0.00 0.00 0.00 75 1017.0
20260506022014 17 15 0.0 0.0 0.00 0.00 0.00 74 1017.0
20260506021512 17 15 0.0 0.0 0.00 0.00 0.00 73 1016.9
20260506021009 17 15 0.0 0.0 0.00 0.00 0.00 72 1017.2
20260506020507 17 15 0.0 0.0 0.00 0.00 0.00 72 1017.1
20260506020004 17 15 0.0 0.0 0.00 0.00 0.00 71 1017.2
20260506015501 17 15 0.0 0.0 0.00 0.00 0.00 71 1017.0
20260506014958 17 15 0.0 0.0 0.00 0.00 0.00 70 1017.0
20260506014455 17 15 0.0 0.0 0.00 0.00 0.00 70 1017.0
20260506013951 17 15 0.0 0.0 0.00 0.00 0.00 70 1017.2
20260506013449 17 14 0.0 0.0 0.00 0.00 0.00 69 1017.0
20260506012945 18 14 0.0 0.0 0.00 0.00 0.00 70 1016.9
20260506012442 18 15 0.0 1.6 0.00 0.00 0.00 68 1017.1
20260506011939 18 13 0.0 0.0 0.00 0.00 0.00 71 1017.0
20260506011436 18 14 0.0 0.0 0.00 0.00 0.00 68 1017.2
20260506010933 18 13 0.0 0.0 0.00 0.00 0.00 69 1017.1
20260506010432 18 13 0.0 0.0 0.00 0.00 0.00 69 1016.9
20260506005927 18 13 0.0 0.0 0.00 0.00 0.00 68 1017.0
20260506005426 18 13 0.0 0.0 0.00 0.00 0.00 67 1017.0
20260506004920 18 13 0.0 0.0 0.00 0.00 0.00 68 1017.1
20260506004419 18 13 0.0 0.0 0.00 0.00 0.00 68 1017.0
20260506003914 18 13 0.0 0.0 0.00 0.00 0.00 68 1016.9
20260506003411 18 13 0.0 0.0 0.00 0.00 0.00 67 1017.2
20260506002908 18 56 0.0 0.0 0.00 0.00 0.00 67 1017.0
20260506002404 18 60 0.0 0.0 0.00 0.00 0.00 67 1016.7
20260506001859 18 7 0.0 0.0 0.00 0.00 0.00 68 1017.1
20260506001356 18 7 0.0 0.0 0.00 0.00 0.00 65 1017.0
20260506000853 18 5 0.0 0.0 0.00 0.00 0.00 66 1016.9
20260506000353 18 5 0.0 0.0 0.00 0.00 0.00 66 1017.0
20260505235848 18 7 0.0 0.0 0.00 0.00 0.00 67 1016.9
20260505235345 18 8 0.0 0.0 0.00 0.00 0.00 66 1017.2
20260505234842 18 5 3.2 4.8 0.00 0.00 0.00 65 1017.2
20260505234340 18 56 0.0 0.0 0.00 0.00 0.00 66 1017.2
20260505233836 18 35 0.0 0.0 0.00 0.00 0.00 66 1017.1
20260505233334 18 64 0.0 1.6 0.00 0.00 0.00 65 1017.4